User: anonymous   Login
Location: Le Gr�zie
(43.6000°N, 13.5000°E)
Time: 00:53:41
(UTC+00:00)
Language:

STARLINK-1225 - Orbit

View from above orbital plane
View from above orbital plane
View from above satellite
View from above satellite

Ground track
Ground track

The orbit data is extracted from the following two-line orbital elements,

1 45187U 20012K   20188.83334491  .00025601  00000-0  17701-2 0  9996
2 45187  53.0000 347.5427 0001138 101.1486  26.2410 15.05574381 21682
Epoch (UTC): 06 July 2020 20:00:01
Eccentricity: 0.0001138
inclination: 53.0000°
perigee height: 549 km
apogee height: 550 km
right ascension of ascending node: 347.5427°
argument of perigee: 101.1486°
revolutions per day: 15.05574381
mean anomaly at epoch: 26.2410°
orbit number at epoch: 2168

The dashed part of the orbit path shows where the satellite is in the earth's shadow,  

DLR